Location: Unspecified
(0.0000°N, 0.0000°E)
Time: 18:12:42
(UTC+00:00)

Vanguard 3 - Pass Details

Date: 10 February 2023
Orbit: 509 x 3249 km, 33.3° (Epoch: 20 March)

Event Time Altitude Azimuth Distance (km) Brightness Sun altitude
Rises 12:36:26 0° 234° (SW) 2,961 10.2 74.6°
Reaches altitude 10° 12:38:58 10° 234° (SW) 1,871 9.4 74.4°
Maximum altitude 12:42:56 86° 148° (SSE) 512 8.2 74.0°
Drops below altitude 10° 12:46:39 10° 56° (NE) 1,745 8.9 73.6°
Sets 12:48:56 0° 55° (NE) 2,737 9.7 73.3°
